User: anonymous   Login
Location: Unspecified
(0.0000°N, 0.0000°E)
Time: 23:03:48
(UTC+00:00)
Language:

TBA - TO BE ASSIGNED - Orbit

View from above orbital plane
View from above orbital plane
View from above satellite
View from above satellite

Ground track
Ground track

The orbit is defined by the following mean orbital elements,

1 67840U          26145.51819005 +.00000000 +00000-0 +41653-3 0 00007
2 67840  43.0024 193.1878 0001113 272.4103  87.6621 15.27587484    03
Epoch (UTC): 25 May 2026 12:26:11
Eccentricity: 0.0001113
inclination: 43.0024°
perigee height: 482 km
apogee height: 484 km
right ascension of ascending node: 193.1878°
argument of perigee: 272.4103°
revolutions per day: 15.27587484
mean anomaly at epoch: 87.6621°

The dashed part of the orbit path shows where the satellite is in the earth's shadow,  

DLR